Theta_e
354 359 361 363 362 361 361 361 362 362 362 362 362 362 361 361 362 362 363 363 362 361 358 355 354 354 355 355 356 356 357 356 353 352 353 353 352 352 351 349 349 346 349
356 359 361 363 362 361 361 361 361 360 361 361 361 362 361 361 362 362 362 362 362 358 356 353 353 353 354 354 354 354 355 356 357 353 351 352 352 354 350 349 348 345 347
356 359 361 362 362 362 361 360 360 360 360 360 360 361 361 361 362 361 361 361 359 357 355 352 353 354 354 354 353 353 353 355 357 355 351 344 345 349 348 349 349 348 345
357 358 359 362 361 361 361 360 359 360 360 360 360 360 360 360 361 361 361 361 359 357 354 352 353 353 353 353 352 352 353 352 353 352 348 347 344 350 349 349 349 348 347
355 357 359 362 361 361 360 360 359 359 359 360 360 360 359 360 360 359 359 359 356 354 352 352 353 353 353 352 352 353 353 353 351 346 338 340 344 349 350 350 350 350 348
354 356 361 361 361 360 361 360 359 359 359 360 360 360 359 359 360 359 359 358 356 352 351 351 352 353 353 352 352 351 351 349 344 329 328 332 342 350 352 351 351 351 348
353 356 359 361 361 361 360 360 359 359 359 359 360 360 359 360 359 359 359 357 355 354 352 351 352 354 354 353 352 350 348 344 333 327 325 334 340 351 355 353 353 350 348
353 355 357 361 361 360 360 360 359 358 358 359 359 359 360 359 359 359 358 357 355 354 353 351 352 352 352 351 350 347 345 344 333 326 325 327 342 350 353 357 356 353 349
354 354 355 356 359 360 360 359 359 358 358 358 358 358 358 358 358 358 357 356 355 354 353 352 350 349 348 347 346 345 343 343 329 328 329 326 338 351 353 357 357 355 353
351 352 353 354 355 356 356 359 359 358 358 357 358 357 357 357 357 357 355 355 355 353 352 350 349 348 346 344 344 343 343 344 332 329 328 326 341 351 354 358 357 356 355
349 348 351 353 354 354 354 356 358 359 359 358 357 357 354 351 352 353 354 354 355 354 352 351 349 347 346 345 344 344 345 332 329 327 325 333 342 349 354 357 357 356 356
345 347 349 351 353 353 354 353 353 354 354 354 353 352 350 348 348 351 352 355 355 355 353 351 350 348 346 332 332 343 334 331 329 328 326 337 342 344 352 355 356 355 355
346 347 349 350 352 351 352 353 354 354 354 353 351 351 348 348 346 347 346 348 346 351 344 345 342 340 335 332 328 325 326 330 329 329 330 341 344 347 355 355 355 354 352
345 346 347 348 349 349 349 352 351 351 352 352 352 351 347 345 343 344 343 342 342 341 340 337 336 335 333 331 328 324 322 323 326 330 330 342 344 348 355 355 355 352 351
345 346 345 346 346 347 345 348 348 350 350 349 351 351 349 346 344 345 344 343 342 342 340 336 335 333 332 330 329 326 325 323 326 330 330 341 345 346 352 355 358 356 355
332 342 346 345 345 344 341 345 346 347 349 349 350 350 350 347 344 343 343 343 342 341 341 339 335 332 329 327 325 325 325 325 326 329 332 335 346 351 350 355 358 359 358
322 327 338 342 342 342 341 344 344 344 346 346 347 348 349 348 345 344 343 342 343 341 338 335 333 330 328 327 327 327 327 326 327 333 337 339 339 350 351 353 355 357 358
320 332 337 343 340 339 340 342 342 343 341 343 344 346 349 349 349 345 345 342 342 340 338 336 336 332 329 329 328 327 328 329 329 332 337 341 340 340 347 351 352 354 356
318 323 330 337 338 337 339 344 347 343 340 340 342 339 343 348 350 348 345 345 341 338 337 337 335 332 332 327 327 329 329 328 331 335 338 340 341 343 342 346 349 350 353
316 317 321 323 324 326 326 327 334 343 347 347 345 342 342 343 344 343 346 344 340 337 335 335 334 332 332 331 327 327 328 330 332 333 336 341 342 342 343 342 342 347 350
315 319 320 319 318 319 316 315 317 320 329 338 344 346 345 343 342 341 341 340 337 337 337 335 334 331 330 327 324 324 326 329 329 333 336 337 339 343 343 341 341 342 344
316 316 317 319 319 318 320 321 320 322 324 326 328 329 335 342 342 341 340 339 339 339 338 336 334 334 333 331 328 324 323 325 326 331 332 335 336 339 339 340 340 340 342
313 312 313 313 314 316 318 317 315 315 314 315 316 321 325 331 336 339 340 339 338 338 338 339 337 334 333 333 331 327 316 319 325 322 328 332 332 335 337 339 339 340 338
310 312 312 311 314 316 315 314 313 311 311 314 316 319 319 322 324 330 331 333 336 338 338 339 339 336 335 331 333 331 331 323 318 316 323 326 331 331 334 337 337 338 338
309 308 309 316 314 313 315 315 315 313 313 313 314 316 317 319 321 324 325 326 327 332 338 338 338 336 335 334 333 332 328 329 324 320 321 323 329 331 334 335 336 338 339
304 308 313 312 311 312 315 315 313 312 311 310 312 314 315 319 320 323 324 323 323 324 326 332 338 337 336 336 335 333 331 326 326 325 324 326 325 328 331 333 335 337 339
Wind_Speed
8 10 17 14 15 17 18 19 19 19 18 17 17 17 17 17 17 17 17 16 15 15 14 13 12 12 12 13 12 12 11 11 11 11 10 8 7 9 10 11 11 6 10
14 13 18 13 15 17 17 17 18 18 18 18 18 17 16 16 16 16 16 15 15 15 14 13 13 12 12 13 12 12 11 10 9 9 9 7 7 10 9 10 10 7 10
14 13 13 13 14 18 17 17 17 17 17 17 17 16 16 15 15 14 13 13 13 13 13 12 12 12 11 11 11 10 9 7 7 6 6 2 2 8 8 9 10 10 9
13 11 12 14 13 17 17 17 17 16 15 15 16 16 16 15 14 14 13 13 14 14 13 13 12 11 11 10 10 9 7 7 5 4 2 4 5 8 9 9 9 9 8
11 8 12 16 14 16 17 17 16 16 15 15 15 14 14 14 13 12 12 11 12 12 12 12 11 10 9 8 7 6 5 4 2 2 3 4 5 7 11 11 10 10 9
10 9 13 17 14 15 17 16 15 15 15 15 14 13 13 13 12 11 11 10 10 11 11 10 9 8 6 5 5 4 3 2 1 2 4 6 6 7 11 11 11 10 10
11 8 12 17 14 14 15 16 16 15 14 15 15 14 13 11 11 10 10 10 10 11 11 11 10 8 7 6 6 5 5 4 2 3 4 1 6 9 11 12 12 11 11
14 10 10 17 17 14 15 15 16 16 15 15 15 15 15 13 12 11 11 10 10 10 10 11 10 9 8 8 8 8 7 6 3 3 3 2 5 9 12 13 12 12 12
12 12 9 10 13 15 14 15 15 16 16 16 15 15 15 15 14 13 11 11 11 11 11 11 11 10 10 10 9 9 9 7 4 4 4 3 8 12 15 14 14 12 12
8 10 11 11 12 11 10 16 15 15 15 14 15 15 15 14 14 14 14 14 13 12 11 11 11 11 11 11 11 10 9 9 4 5 4 4 8 12 14 14 14 13 12
6 5 6 9 10 12 12 12 16 17 16 15 13 13 10 5 7 9 9 11 13 14 15 14 13 12 11 11 11 11 10 3 5 4 4 10 10 11 15 14 15 14 13
10 7 6 7 9 8 8 8 8 8 7 7 7 7 5 5 5 7 9 12 12 13 13 13 13 12 11 5 4 10 4 5 4 5 4 12 12 14 15 15 15 15 14
11 8 12 11 8 9 7 5 5 5 5 5 6 6 4 2 1 1 2 2 3 8 3 6 5 4 5 4 5 4 5 4 3 4 6 10 12 14 14 16 15 15 14
9 12 8 7 7 7 4 5 5 6 6 6 7 7 6 4 4 3 2 3 3 2 3 3 3 4 5 5 5 6 5 5 3 3 5 14 12 13 15 16 16 15 15
11 12 13 12 10 8 5 4 4 4 5 5 8 10 6 6 7 7 7 6 6 4 4 3 3 4 4 4 4 5 9 6 6 5 4 13 13 16 18 17 16 16 16
11 11 11 13 12 10 6 6 4 3 2 3 7 8 10 7 7 6 6 7 7 6 6 7 7 6 5 5 6 7 9 7 9 7 5 6 12 14 18 18 16 17 17
6 4 10 10 11 11 9 6 5 4 5 4 4 4 5 6 6 7 6 7 7 6 6 4 6 5 5 5 9 8 6 9 9 9 7 7 7 12 15 18 18 19 17
6 8 8 9 9 7 7 6 5 4 4 4 4 4 6 6 7 6 7 7 6 5 6 6 6 6 8 8 8 7 7 7 10 10 9 8 7 5 12 19 18 17 17
7 9 8 8 9 9 7 5 5 6 5 5 4 4 5 7 9 8 7 8 5 5 6 7 7 6 8 7 7 7 8 7 8 8 11 8 8 9 6 11 19 18 19
8 6 9 7 8 8 6 5 3 4 5 5 5 6 8 8 8 7 8 7 5 4 5 5 9 6 9 8 7 8 6 7 7 8 10 8 8 8 9 8 5 8 14
7 8 9 10 9 8 4 4 2 4 2 3 3 4 4 5 7 7 7 6 5 6 9 6 6 9 8 3 1 4 6 7 8 10 9 9 10 11 8 8 6 5 5
12 10 8 7 6 4 4 3 3 3 1 1 1 1 0 4 6 5 6 6 7 7 7 9 8 10 7 5 7 4 8 7 7 11 7 8 12 8 10 9 9 9 8
13 9 9 9 8 6 6 5 4 3 3 2 1 2 2 2 4 4 6 5 7 7 8 10 10 13 12 9 10 7 0 8 9 4 10 11 11 9 9 9 9 10 7
8 8 8 7 8 6 7 5 5 4 3 3 3 3 3 3 4 5 6 5 5 6 7 9 8 10 9 12 7 10 11 4 7 5 3 4 9 12 14 10 8 8 8
8 8 7 7 8 6 6 6 6 4 4 2 3 3 2 3 3 5 5 6 6 4 7 9 9 9 9 11 12 11 9 10 5 6 14 8 2 5 8 10 6 8 9
4 4 5 6 4 5 7 8 9 9 7 4 4 3 2 2 3 4 5 5 6 6 7 7 9 11 10 10 10 11 11 7 7 7 9 14 10 10 3 5 5 7 8
Wind_Direction
173 157 160 153 140 126 120 120 120 119 118 114 111 113 116 120 125 128 130 132 133 133 134 133 131 129 126 122 122 117 115 122 119 117 124 129 123 138 124 126 118 115 113
145 153 159 155 143 127 122 120 120 119 120 121 122 123 124 128 132 134 135 135 136 136 137 139 139 138 136 134 130 125 126 128 124 128 137 139 132 142 122 128 132 133 128
143 150 150 154 146 130 127 124 123 124 124 123 123 124 127 130 132 131 131 133 135 137 140 143 144 145 144 139 133 130 129 119 118 133 129 134 191 142 145 142 146 139 136
139 147 149 148 148 135 132 131 130 129 126 125 127 130 132 135 137 138 140 142 145 147 149 150 153 153 152 147 141 139 135 129 142 164 183 193 208 170 158 160 161 150 145
136 146 154 146 152 143 138 137 138 136 133 132 134 137 140 140 143 144 144 147 151 152 154 156 158 160 159 152 147 147 143 142 163 257 241 247 217 194 172 181 178 167 158
137 150 153 143 154 149 145 143 143 143 143 142 144 146 149 149 150 150 150 152 156 159 161 160 163 166 168 167 167 171 176 186 309 296 288 278 192 205 183 197 190 176 173
146 153 152 146 154 155 152 151 150 153 153 154 153 156 158 157 156 156 157 161 166 168 168 169 173 177 181 194 202 207 215 224 204 247 282 283 179 200 195 208 201 184 181
151 153 159 155 156 162 161 160 160 162 164 165 164 163 164 166 170 171 171 173 175 177 178 179 184 190 198 207 217 225 230 232 222 250 276 284 217 204 212 218 208 192 188
159 156 162 161 163 165 167 168 169 171 172 172 172 173 174 175 179 178 181 184 186 187 190 190 193 197 205 216 224 234 239 245 220 230 240 226 246 214 212 222 218 203 199
166 172 168 165 166 167 172 176 176 176 179 180 181 181 181 185 188 192 185 188 194 198 203 202 204 206 212 220 228 236 243 252 254 245 251 247 248 220 218 221 224 214 207
169 190 180 178 179 177 177 182 180 182 183 185 188 190 183 187 196 201 204 211 207 203 202 206 211 214 221 230 236 242 247 239 244 245 240 248 243 227 224 228 226 220 213
184 186 187 192 188 180 183 179 176 183 184 184 189 187 182 190 195 202 212 220 223 224 223 223 220 217 222 225 238 247 238 233 230 237 242 251 246 239 238 228 225 223 214
189 184 196 194 184 178 183 175 182 179 177 180 179 184 185 177 208 259 314 285 238 242 254 253 253 240 235 236 241 239 255 258 259 273 267 254 251 254 235 224 228 225 219
184 200 192 185 183 187 178 179 184 187 188 190 196 186 168 173 183 200 201 245 279 268 270 278 292 295 292 299 304 300 271 267 270 258 267 276 261 253 240 228 231 232 228
198 201 199 178 179 181 181 167 167 195 189 200 204 209 194 200 208 197 200 204 197 208 203 227 251 272 268 263 259 273 280 274 262 243 236 257 254 244 239 235 234 239 233
207 211 190 184 179 173 169 158 153 163 190 196 214 214 201 201 206 202 217 221 226 214 208 209 220 231 244 238 251 241 255 263 263 253 247 255 263 247 236 232 225 233 235
212 203 191 176 170 173 171 150 160 158 166 185 215 225 231 230 216 218 220 224 224 214 219 208 207 212 233 234 250 249 250 257 259 265 259 248 243 229 233 228 229 231 229
161 161 147 163 162 153 154 162 173 167 176 191 200 189 206 221 234 228 236 244 236 214 205 221 232 241 246 238 242 236 236 232 242 246 256 249 245 238 230 234 234 236 233
148 137 137 138 146 142 145 161 168 183 209 208 197 205 217 224 227 226 233 247 226 224 224 224 226 217 243 242 246 248 243 241 245 248 244 243 235 233 233 244 239 231 228
147 131 126 128 137 140 138 131 137 147 189 185 207 196 214 230 221 225 240 242 222 215 221 215 235 224 237 238 235 245 234 234 234 239 242 242 239 229 231 232 224 238 237
143 146 153 145 162 149 154 143 128 157 144 155 192 214 212 232 237 226 231 239 245 230 247 237 231 237 245 216 250 257 253 243 240 249 243 241 239 243 245 226 220 225 223
166 176 168 160 157 144 116 115 107 134 120 126 43 355 246 213 234 246 244 237 230 242 235 236 235 254 252 214 231 261 272 271 238 236 235 234 243 243 243 240 235 227 228
172 173 164 161 164 160 136 108 83 73 67 48 359 320 302 356 295 248 240 230 230 230 243 238 242 241 254 252 211 210 323 235 266 240 230 235 236 237 242 237 226 227 214
169 168 163 162 162 163 150 129 135 151 171 216 189 196 276 299 292 298 296 277 238 235 242 243 237 234 239 253 253 233 245 235 230 289 277 258 240 241 239 235 230 228 217
153 165 173 163 156 157 154 147 146 171 201 206 234 251 285 303 264 265 276 294 294 247 248 245 243 228 229 237 248 251 235 243 243 236 266 264 320 254 262 251 224 220 221
121 139 150 160 191 188 173 177 180 191 201 206 220 197 251 259 267 271 277 276 283 291 281 267 248 246 242 239 247 247 245 232 228 237 251 263 274 281 296 254 230 229 224